Time,TemperatureF,DewpointF,PressureIn,WindDirection,WindDirectionDegrees,WindSpeedMPH,WindSpeedGustMPH,Humidity,HourlyPrecipIn,Conditions,Clouds,dailyrainin,SoftwareType,DateUTC
2013-02-20 00:00:00,16.4,12.1,29.96,WNW,284,2.0,2.0,83,0.00,,,0.00,Wunderground v.1.15,2013-02-20 05:00:00,
2013-02-20 00:05:00,16.2,11.9,29.96,WSW,258,3.0,3.0,83,0.00,,,0.00,Wunderground v.1.15,2013-02-20 05:05:00,
2013-02-20 00:15:00,16.2,12.2,29.97,NW,313,2.0,2.0,84,0.00,,,0.00,Wunderground v.1.15,2013-02-20 05:15:00,
2013-02-20 00:20:00,16.2,12.2,29.97,WNW,288,2.0,5.0,84,0.00,,,0.00,Wunderground v.1.15,2013-02-20 05:20:00,
2013-02-20 00:25:00,16.1,11.8,29.97,NNW,330,3.0,5.0,83,0.00,,,0.00,Wunderground v.1.15,2013-02-20 05:25:00,
2013-02-20 00:30:00,16.1,11.8,29.97,NW,325,3.0,3.0,83,0.00,,,0.00,Wunderground v.1.15,2013-02-20 05:30:00,
2013-02-20 00:35:00,16.1,11.8,29.97,NNW,339,3.0,3.0,83,0.00,,,0.00,Wunderground v.1.15,2013-02-20 05:35:00,
2013-02-20 00:45:00,16.1,11.8,29.98,NW,322,4.0,5.0,83,0.00,,,0.00,Wunderground v.1.15,2013-02-20 05:45:00,
2013-02-20 00:50:00,16.1,11.8,29.98,NNW,333,3.0,3.0,83,0.00,,,0.00,Wunderground v.1.15,2013-02-20 05:50:00,
2013-02-20 00:55:00,16.1,11.8,29.98,NW,326,3.0,4.0,83,0.00,,,0.00,Wunderground v.1.15,2013-02-20 05:55:00,
2013-02-20 01:05:00,15.7,11.5,29.99,NNW,332,5.0,7.0,83,0.00,,,0.00,Wunderground v.1.15,2013-02-20 06:05:00,
2013-02-20 01:15:00,15.6,11.1,29.99,NNW,340,6.0,6.0,82,0.00,,,0.00,Wunderground v.1.15,2013-02-20 06:15:00,
2013-02-20 01:20:00,15.4,10.9,29.99,WNW,296,6.0,6.0,82,0.00,,,0.00,Wunderground v.1.15,2013-02-20 06:20:00,
2013-02-20 01:25:00,15.4,10.9,29.99,NW,320,5.0,6.0,82,0.00,,,0.00,Wunderground v.1.15,2013-02-20 06:25:00,
2013-02-20 01:30:00,15.4,10.9,30.00,NW,319,4.0,5.0,82,0.00,,,0.00,Wunderground v.1.15,2013-02-20 06:30:00,
2013-02-20 01:35:00,15.4,10.9,30.00,NNW,336,4.0,5.0,82,0.00,,,0.00,Wunderground v.1.15,2013-02-20 06:35:00,
2013-02-20 01:45:00,15.2,10.7,30.00,NW,312,5.0,5.0,82,0.00,,,0.00,Wunderground v.1.15,2013-02-20 06:45:00,
2013-02-20 01:50:00,15.2,10.7,30.00,NW,313,3.0,3.0,82,0.00,,,0.00,Wunderground v.1.15,2013-02-20 06:50:00,
2013-02-20 01:55:00,15.2,10.7,30.00,North,349,3.0,3.0,82,0.00,,,0.00,Wunderground v.1.15,2013-02-20 06:55:00,
2013-02-20 02:00:00,15.2,10.7,30.01,WNW,284,3.0,3.0,82,0.00,,,0.00,Wunderground v.1.15,2013-02-20 07:00:00,
2013-02-20 02:05:00,15.2,10.7,30.01,NW,305,3.0,3.0,82,0.00,,,0.00,Wunderground v.1.15,2013-02-20 07:05:00,
2013-02-20 02:15:00,15.1,10.6,30.01,NW,315,3.0,4.0,82,0.00,,,0.00,Wunderground v.1.15,2013-02-20 07:15:00,
2013-02-20 02:25:00,15.1,10.6,30.01,NNW,339,4.0,4.0,82,0.00,,,0.00,Wunderground v.1.15,2013-02-20 07:25:00,
2013-02-20 02:30:00,15.1,10.6,30.02,WNW,294,2.0,2.0,82,0.00,,,0.00,Wunderground v.1.15,2013-02-20 07:30:00,
2013-02-20 02:40:00,15.1,10.9,30.02,West,274,1.0,2.0,83,0.00,,,0.00,Wunderground v.1.15,2013-02-20 07:40:00,
2013-02-20 02:45:00,15.1,10.9,30.02,NW,320,2.0,2.0,83,0.00,,,0.00,Wunderground v.1.15,2013-02-20 07:45:00,
2013-02-20 02:50:00,15.1,10.9,30.02,NW,305,2.0,6.0,83,0.00,,,0.00,Wunderground v.1.15,2013-02-20 07:50:00,
2013-02-20 02:55:00,15.1,10.9,30.02,WNW,295,2.0,6.0,83,0.00,,,0.00,Wunderground v.1.15,2013-02-20 07:55:00,
2013-02-20 03:05:00,15.1,10.9,30.03,NNW,337,3.0,3.0,83,0.00,,,0.00,Wunderground v.1.15,2013-02-20 08:05:00,
2013-02-20 03:15:00,15.1,10.9,30.03,NNW,339,2.0,2.0,83,0.00,,,0.00,Wunderground v.1.15,2013-02-20 08:15:00,
2013-02-20 03:25:00,15.1,10.9,30.03,NW,315,1.0,1.0,83,0.00,,,0.00,Wunderground v.1.15,2013-02-20 08:25:00,
2013-02-20 03:30:00,15.1,10.9,30.03,North,0,1.0,5.0,83,0.00,,,0.00,Wunderground v.1.15,2013-02-20 08:30:00,
2013-02-20 03:35:00,15.1,10.9,30.03,NW,304,2.0,5.0,83,0.00,,,0.00,Wunderground v.1.15,2013-02-20 08:35:00,
2013-02-20 03:45:00,15.1,10.9,30.03,WNW,296,2.0,2.0,83,0.00,,,0.00,Wunderground v.1.15,2013-02-20 08:45:00,
2013-02-20 03:50:00,15.1,10.9,30.03,WSW,251,2.0,5.0,83,0.00,,,0.00,Wunderground v.1.15,2013-02-20 08:50:00,
2013-02-20 03:55:00,15.1,10.9,30.03,WNW,298,3.0,5.0,83,0.00,,,0.00,Wunderground v.1.15,2013-02-20 08:55:00,
2013-02-20 04:05:00,15.2,11.0,30.04,NW,322,2.0,2.0,83,0.00,,,0.00,Wunderground v.1.15,2013-02-20 09:05:00,
2013-02-20 04:15:00,15.2,11.0,30.05,WNW,302,2.0,2.0,83,0.00,,,0.00,Wunderground v.1.15,2013-02-20 09:15:00,
2013-02-20 04:20:00,15.2,11.0,30.05,NW,316,2.0,3.0,83,0.00,,,0.00,Wunderground v.1.15,2013-02-20 09:20:00,
2013-02-20 04:25:00,15.2,11.0,30.05,WNW,295,2.0,3.0,83,0.00,,,0.00,Wunderground v.1.15,2013-02-20 09:25:00,
2013-02-20 04:30:00,15.2,11.0,30.05,West,275,2.0,3.0,83,0.00,,,0.00,Wunderground v.1.15,2013-02-20 09:30:00,
2013-02-20 04:35:00,15.4,11.2,30.05,NW,319,2.0,3.0,83,0.00,,,0.00,Wunderground v.1.15,2013-02-20 09:35:00,
2013-02-20 04:45:00,15.4,11.2,30.06,NW,320,3.0,6.0,83,0.00,,,0.00,Wunderground v.1.15,2013-02-20 09:45:00,
2013-02-20 04:50:00,15.6,11.4,30.06,North,0,3.0,3.0,83,0.00,,,0.00,Wunderground v.1.15,2013-02-20 09:50:00,
2013-02-20 04:55:00,15.6,11.1,30.06,NW,311,3.0,8.0,82,0.00,,,0.00,Wunderground v.1.15,2013-02-20 09:55:00,
2013-02-20 05:05:00,15.7,10.9,30.07,NNW,333,4.0,7.0,81,0.00,,,0.00,Wunderground v.1.15,2013-02-20 10:05:00,
2013-02-20 05:15:00,15.9,10.8,30.07,WNW,296,4.0,6.0,80,0.00,,,0.00,Wunderground v.1.15,2013-02-20 10:15:00,
2013-02-20 05:20:00,15.9,10.8,30.07,NW,323,4.0,5.0,80,0.00,,,0.00,Wunderground v.1.15,2013-02-20 10:20:00,
2013-02-20 05:25:00,15.9,10.8,30.07,North,7,5.0,5.0,80,0.00,,,0.00,Wunderground v.1.15,2013-02-20 10:25:00,
2013-02-20 05:30:00,15.9,10.8,30.08,NW,325,5.0,5.0,80,0.00,,,0.00,Wunderground v.1.15,2013-02-20 10:30:00,
2013-02-20 05:40:00,15.9,10.5,30.08,WNW,302,4.0,4.0,79,0.00,,,0.00,Wunderground v.1.15,2013-02-20 10:40:00,
2013-02-20 05:45:00,15.9,10.5,30.08,North,7,3.0,4.0,79,0.00,,,0.00,Wunderground v.1.15,2013-02-20 10:45:00,
2013-02-20 05:50:00,15.9,10.5,30.08,NW,318,3.0,5.0,79,0.00,,,0.00,Wunderground v.1.15,2013-02-20 10:50:00,
2013-02-20 05:55:00,15.9,10.5,30.08,NNW,340,4.0,5.0,79,0.00,,,0.00,Wunderground v.1.15,2013-02-20 10:55:00,
2013-02-20 06:05:00,15.9,10.5,30.08,NNW,344,6.0,6.0,79,0.00,,,0.00,Wunderground v.1.15,2013-02-20 11:05:00,
2013-02-20 06:15:00,15.9,10.3,30.09,NE,34,4.0,6.0,78,0.00,,,0.00,Wunderground v.1.15,2013-02-20 11:15:00,
2013-02-20 06:20:00,15.9,10.3,30.09,NW,315,4.0,4.0,78,0.00,,,0.00,Wunderground v.1.15,2013-02-20 11:20:00,
2013-02-20 06:25:00,15.9,10.3,30.09,NW,325,5.0,5.0,78,0.00,,,0.00,Wunderground v.1.15,2013-02-20 11:25:00,
2013-02-20 06:30:00,15.9,10.3,30.10,North,352,4.0,7.0,78,0.00,,,0.00,Wunderground v.1.15,2013-02-20 11:30:00,
2013-02-20 06:40:00,15.9,10.0,30.10,North,0,5.0,5.0,77,0.00,,,0.00,Wunderground v.1.15,2013-02-20 11:40:00,
2013-02-20 06:45:00,15.9,10.3,30.10,NNW,337,4.0,5.0,78,0.00,,,0.00,Wunderground v.1.15,2013-02-20 11:45:00,
2013-02-20 06:50:00,15.9,10.0,30.10,West,278,4.0,4.0,77,0.00,,,0.00,Wunderground v.1.15,2013-02-20 11:50:00,
2013-02-20 07:00:00,15.9,10.0,30.11,NNW,339,4.0,6.0,77,0.00,,,0.00,Wunderground v.1.15,2013-02-20 12:00:00,
2013-02-20 07:05:00,16.1,10.2,30.11,North,0,5.0,6.0,77,0.00,,,0.00,Wunderground v.1.15,2013-02-20 12:05:00,
2013-02-20 07:15:00,16.1,10.2,30.11,NNW,344,5.0,5.0,77,0.00,,,0.00,Wunderground v.1.15,2013-02-20 12:15:00,
2013-02-20 07:20:00,16.1,9.9,30.11,North,357,6.0,6.0,76,0.00,,,0.00,Wunderground v.1.15,2013-02-20 12:20:00,
2013-02-20 07:25:00,16.1,9.9,30.11,NNW,333,5.0,6.0,76,0.00,,,0.00,Wunderground v.1.15,2013-02-20 12:25:00,
2013-02-20 07:35:00,16.1,9.6,30.12,NNW,343,7.0,13.0,75,0.00,,,0.00,Wunderground v.1.15,2013-02-20 12:35:00,
2013-02-20 07:40:00,16.2,9.7,30.12,NNW,328,7.0,7.0,75,0.00,,,0.00,Wunderground v.1.15,2013-02-20 12:40:00,
2013-02-20 07:45:00,16.2,9.7,30.12,NNW,336,6.0,7.0,75,0.00,,,0.00,Wunderground v.1.15,2013-02-20 12:45:00,
2013-02-20 07:50:00,16.2,9.7,30.12,NNW,329,6.0,6.0,75,0.00,,,0.00,Wunderground v.1.15,2013-02-20 12:50:00,
2013-02-20 08:00:00,16.2,9.4,30.13,NNW,337,7.0,11.0,74,0.00,,,0.00,Wunderground v.1.15,2013-02-20 13:00:00,
2013-02-20 08:05:00,16.2,9.4,30.13,WSW,251,7.0,11.0,74,0.00,,,0.00,Wunderground v.1.15,2013-02-20 13:05:00,
2013-02-20 08:15:00,16.4,8.9,30.13,North,0,8.0,10.0,72,0.00,,,0.00,Wunderground v.1.15,2013-02-20 13:15:00,
2013-02-20 08:20:00,16.4,8.9,30.13,NW,309,6.0,6.0,72,0.00,,,0.00,Wunderground v.1.15,2013-02-20 13:20:00,
2013-02-20 08:25:00,16.5,9.0,30.13,NW,322,5.0,6.0,72,0.00,,,0.00,Wunderground v.1.15,2013-02-20 13:25:00,
2013-02-20 08:35:00,16.5,9.0,30.13,NNW,339,5.0,7.0,72,0.00,,,0.00,Wunderground v.1.15,2013-02-20 13:35:00,
2013-02-20 08:40:00,16.7,9.2,30.13,North,352,5.0,5.0,72,0.00,,,0.00,Wunderground v.1.15,2013-02-20 13:40:00,
2013-02-20 08:45:00,16.5,8.7,30.14,North,352,7.0,11.0,71,0.00,,,0.00,Wunderground v.1.15,2013-02-20 13:45:00,
2013-02-20 08:50:00,16.5,8.7,30.14,NW,305,8.0,8.0,71,0.00,,,0.00,Wunderground v.1.15,2013-02-20 13:50:00,
2013-02-20 09:00:00,16.7,9.2,30.14,NNW,329,7.0,7.0,72,0.00,,,0.00,Wunderground v.1.15,2013-02-20 14:00:00,
2013-02-20 09:05:00,16.7,9.2,30.14,North,354,7.0,11.0,72,0.00,,,0.00,Wunderground v.1.15,2013-02-20 14:05:00,
2013-02-20 09:15:00,16.9,9.1,30.15,North,0,8.0,13.0,71,0.00,,,0.00,Wunderground v.1.15,2013-02-20 14:15:00,
2013-02-20 09:20:00,17.0,9.2,30.15,NW,304,7.0,7.0,71,0.00,,,0.00,Wunderground v.1.15,2013-02-20 14:20:00,
2013-02-20 09:25:00,17.2,9.4,30.15,NNW,329,5.0,7.0,71,0.00,,,0.00,Wunderground v.1.15,2013-02-20 14:25:00,
2013-02-20 09:35:00,17.2,9.1,30.15,NNW,330,8.0,10.0,70,0.00,,,0.00,Wunderground v.1.15,2013-02-20 14:35:00,
2013-02-20 09:40:00,17.2,9.1,30.15,North,359,8.0,8.0,70,0.00,,,0.00,Wunderground v.1.15,2013-02-20 14:40:00,
2013-02-20 09:45:00,17.2,9.4,30.15,North,0,9.0,14.0,71,0.00,,,0.00,Wunderground v.1.15,2013-02-20 14:45:00,
2013-02-20 09:55:00,17.3,9.5,30.15,NNW,342,8.0,8.0,71,0.00,,,0.00,Wunderground v.1.15,2013-02-20 14:55:00,
2013-02-20 10:00:00,17.5,9.4,30.15,North,0,8.0,8.0,70,0.00,,,0.00,Wunderground v.1.15,2013-02-20 15:00:00,
2013-02-20 10:05:00,17.5,9.4,30.15,NNW,330,8.0,8.0,70,0.00,,,0.00,Wunderground v.1.15,2013-02-20 15:05:00,
2013-02-20 10:15:00,17.8,9.7,30.15,NW,320,6.0,7.0,70,0.00,,,0.00,Wunderground v.1.15,2013-02-20 15:15:00,
2013-02-20 10:20:00,17.8,9.7,30.15,NW,318,7.0,16.0,70,0.00,,,0.00,Wunderground v.1.15,2013-02-20 15:20:00,
2013-02-20 10:30:00,18.0,10.2,30.16,North,0,8.0,9.0,71,0.00,,,0.00,Wunderground v.1.15,2013-02-20 15:30:00,
2013-02-20 10:35:00,18.1,10.0,30.16,North,349,6.0,12.0,70,0.00,,,0.00,Wunderground v.1.15,2013-02-20 15:35:00,
2013-02-20 10:40:00,18.0,9.9,30.16,NNW,340,8.0,8.0,70,0.00,,,0.00,Wunderground v.1.15,2013-02-20 15:40:00,
2013-02-20 10:45:00,18.1,10.0,30.16,North,359,9.0,9.0,70,0.00,,,0.00,Wunderground v.1.15,2013-02-20 15:45:00,
2013-02-20 10:55:00,18.4,10.2,30.16,North,0,7.0,8.0,70,0.00,,,0.00,Wunderground v.1.15,2013-02-20 15:55:00,
2013-02-20 11:06:00,18.6,10.4,30.16,NNW,346,6.0,7.0,70,0.00,,,0.00,Wunderground v.1.15,2013-02-20 16:06:00,
2013-02-20 11:15:00,18.6,11.4,30.17,NNW,339,6.0,10.0,73,0.00,,,0.00,Wunderground v.1.15,2013-02-20 16:15:00,
2013-02-20 11:20:00,18.6,11.7,30.17,NNE,13,4.0,4.0,74,0.00,,,0.00,Wunderground v.1.15,2013-02-20 16:20:00,
2013-02-20 11:25:00,18.9,12.3,30.17,North,0,3.0,7.0,75,0.00,,,0.00,Wunderground v.1.15,2013-02-20 16:25:00,
2013-02-20 11:30:00,18.6,11.7,30.17,North,352,5.0,5.0,74,0.00,,,0.00,Wunderground v.1.15,2013-02-20 16:30:00,
2013-02-20 11:40:00,18.6,11.1,30.17,NE,41,6.0,6.0,72,0.00,,,0.00,Wunderground v.1.15,2013-02-20 16:40:00,
2013-02-20 11:45:00,18.6,11.4,30.17,NNW,347,6.0,8.0,73,0.00,,,0.00,Wunderground v.1.15,2013-02-20 16:45:00,
2013-02-20 11:50:00,18.6,11.1,30.17,North,357,7.0,7.0,72,0.00,,,0.00,Wunderground v.1.15,2013-02-20 16:50:00,
2013-02-20 12:00:00,18.8,11.3,30.18,North,349,6.0,6.0,72,0.00,,,0.00,Wunderground v.1.15,2013-02-20 17:00:00,
2013-02-20 12:06:00,18.9,11.0,30.18,NNE,24,7.0,7.0,71,0.00,,,0.00,Wunderground v.1.15,2013-02-20 17:06:00,
2013-02-20 12:15:00,18.9,10.7,30.18,NW,320,7.0,7.0,70,0.00,,,0.00,Wunderground v.1.15,2013-02-20 17:15:00,
2013-02-20 12:20:00,19.1,10.9,30.18,NNW,328,7.0,10.0,70,0.00,,,0.00,Wunderground v.1.15,2013-02-20 17:20:00,
2013-02-20 12:25:00,19.2,11.0,30.18,North,0,6.0,10.0,70,0.00,,,0.00,Wunderground v.1.15,2013-02-20 17:25:00,
2013-02-20 12:30:00,19.5,11.3,30.18,North,359,5.0,8.0,70,0.00,,,0.00,Wunderground v.1.15,2013-02-20 17:30:00,
2013-02-20 12:40:00,19.9,11.7,30.18,NNW,346,6.0,7.0,70,0.00,,,0.00,Wunderground v.1.15,2013-02-20 17:40:00,
2013-02-20 12:45:00,19.9,11.0,30.18,NW,322,6.0,7.0,68,0.00,,,0.00,Wunderground v.1.15,2013-02-20 17:45:00,
2013-02-20 12:50:00,20.2,11.3,30.18,North,1,6.0,6.0,68,0.00,,,0.00,Wunderground v.1.15,2013-02-20 17:50:00,
2013-02-20 13:00:00,20.5,10.9,30.18,NNW,332,6.0,7.0,66,0.00,,,0.00,Wunderground v.1.15,2013-02-20 18:00:00,
2013-02-20 13:06:00,20.2,10.3,30.18,NW,309,7.0,7.0,65,0.00,,,0.00,Wunderground v.1.15,2013-02-20 18:06:00,
2013-02-20 13:15:00,20.5,11.3,30.18,NNW,340,7.0,8.0,67,0.00,,,0.00,Wunderground v.1.15,2013-02-20 18:15:00,
2013-02-20 13:20:00,20.3,10.7,30.18,NNW,333,8.0,8.0,66,0.00,,,0.00,Wunderground v.1.15,2013-02-20 18:20:00,
2013-02-20 13:25:00,20.3,10.7,30.18,North,352,8.0,9.0,66,0.00,,,0.00,Wunderground v.1.15,2013-02-20 18:25:00,
2013-02-20 13:30:00,20.5,11.3,30.18,NNW,329,7.0,11.0,67,0.00,,,0.00,Wunderground v.1.15,2013-02-20 18:30:00,
2013-02-20 13:40:00,20.5,10.9,30.18,NNW,336,8.0,8.0,66,0.00,,,0.00,Wunderground v.1.15,2013-02-20 18:40:00,
2013-02-20 13:45:00,20.6,11.0,30.18,NNW,346,7.0,8.0,66,0.00,,,0.00,Wunderground v.1.15,2013-02-20 18:45:00,
2013-02-20 13:50:00,20.6,11.0,30.18,NW,319,7.0,7.0,66,0.00,,,0.00,Wunderground v.1.15,2013-02-20 18:50:00,
2013-02-20 14:00:00,21.0,11.1,30.19,NNW,343,7.0,15.0,65,0.00,,,0.00,Wunderground v.1.15,2013-02-20 19:00:00,
2013-02-20 14:06:00,21.0,11.1,30.19,North,352,7.0,15.0,65,0.00,,,0.00,Wunderground v.1.15,2013-02-20 19:06:00,
2013-02-20 14:15:00,21.3,11.4,30.18,NNW,347,6.0,12.0,65,0.00,,,0.00,Wunderground v.1.15,2013-02-20 19:15:00,
2013-02-20 14:20:00,21.3,11.7,30.18,North,352,6.0,6.0,66,0.00,,,0.00,Wunderground v.1.15,2013-02-20 19:20:00,
2013-02-20 14:25:00,21.3,11.4,30.18,NNW,333,6.0,6.0,65,0.00,,,0.00,Wunderground v.1.15,2013-02-20 19:25:00,
2013-02-20 14:30:00,21.4,12.1,30.18,North,0,5.0,7.0,67,0.00,,,0.00,Wunderground v.1.15,2013-02-20 19:30:00,
2013-02-20 14:40:00,21.4,11.8,30.18,WNW,299,6.0,10.0,66,0.00,,,0.00,Wunderground v.1.15,2013-02-20 19:40:00,
2013-02-20 14:45:00,21.4,12.1,30.18,North,356,6.0,10.0,67,0.00,,,0.00,Wunderground v.1.15,2013-02-20 19:45:00,
2013-02-20 14:55:00,21.4,12.1,30.18,NW,313,6.0,6.0,67,0.00,,,0.00,Wunderground v.1.15,2013-02-20 19:55:00,
2013-02-20 15:00:00,21.8,12.2,30.19,North,0,4.0,6.0,66,0.00,,,0.00,Wunderground v.1.15,2013-02-20 20:00:00,
2013-02-20 15:06:00,21.8,12.2,30.19,West,268,4.0,6.0,66,0.00,,,0.00,Wunderground v.1.15,2013-02-20 20:06:00,
2013-02-20 15:15:00,21.8,12.2,30.19,North,350,5.0,5.0,66,0.00,,,0.00,Wunderground v.1.15,2013-02-20 20:15:00,
2013-02-20 15:20:00,21.9,12.3,30.19,NW,323,5.0,5.0,66,0.00,,,0.00,Wunderground v.1.15,2013-02-20 20:20:00,
2013-02-20 15:25:00,21.8,12.2,30.19,NW,318,6.0,6.0,66,0.00,,,0.00,Wunderground v.1.15,2013-02-20 20:25:00,
2013-02-20 15:35:00,21.8,12.5,30.21,West,278,5.0,6.0,67,0.00,,,0.00,Wunderground v.1.15,2013-02-20 20:35:00,
2013-02-20 15:40:00,21.9,12.6,30.21,NW,323,5.0,5.0,67,0.00,,,0.00,Wunderground v.1.15,2013-02-20 20:40:00,
2013-02-20 15:45:00,22.1,13.1,30.22,West,265,4.0,5.0,68,0.00,,,0.00,Wunderground v.1.15,2013-02-20 20:45:00,
2013-02-20 15:50:00,22.2,12.9,30.22,NNW,339,4.0,6.0,67,0.00,,,0.00,Wunderground v.1.15,2013-02-20 20:50:00,
2013-02-20 16:00:00,21.9,13.3,30.23,NNW,336,5.0,6.0,69,0.00,,,0.00,Wunderground v.1.15,2013-02-20 21:00:00,
2013-02-20 16:06:00,21.8,13.5,30.23,North,7,5.0,6.0,70,0.00,,,0.00,Wunderground v.1.15,2013-02-20 21:06:00,
2013-02-20 16:15:00,21.8,13.2,30.23,NW,319,4.0,7.0,69,0.00,,,0.00,Wunderground v.1.15,2013-02-20 21:15:00,
2013-02-20 16:20:00,21.9,13.0,30.23,NNW,347,5.0,5.0,68,0.00,,,0.00,Wunderground v.1.15,2013-02-20 21:20:00,
2013-02-20 16:25:00,22.1,13.1,30.23,WNW,291,5.0,5.0,68,0.00,,,0.00,Wunderground v.1.15,2013-02-20 21:25:00,
2013-02-20 16:35:00,22.1,12.8,30.24,North,0,4.0,11.0,67,0.00,,,0.00,Wunderground v.1.15,2013-02-20 21:35:00,
2013-02-20 16:40:00,21.9,12.3,30.24,NNW,344,7.0,7.0,66,0.00,,,0.00,Wunderground v.1.15,2013-02-20 21:40:00,
2013-02-20 16:45:00,21.9,12.6,30.24,NW,320,6.0,7.0,67,0.00,,,0.00,Wunderground v.1.15,2013-02-20 21:45:00,
2013-02-20 16:50:00,22.1,12.8,30.24,NW,318,4.0,4.0,67,0.00,,,0.00,Wunderground v.1.15,2013-02-20 21:50:00,
2013-02-20 17:00:00,22.1,12.5,30.25,North,359,6.0,7.0,66,0.00,,,0.00,Wunderground v.1.15,2013-02-20 22:00:00,
2013-02-20 17:06:00,22.1,12.8,30.25,NW,326,7.0,7.0,67,0.00,,,0.00,Wunderground v.1.15,2013-02-20 22:06:00,
2013-02-20 17:15:00,22.1,12.8,30.25,NW,319,5.0,5.0,67,0.00,,,0.00,Wunderground v.1.15,2013-02-20 22:15:00,
2013-02-20 17:20:00,21.9,12.6,30.25,NNW,346,6.0,6.0,67,0.00,,,0.00,Wunderground v.1.15,2013-02-20 22:20:00,
2013-02-20 17:25:00,21.9,12.6,30.25,North,354,5.0,6.0,67,0.00,,,0.00,Wunderground v.1.15,2013-02-20 22:25:00,
2013-02-20 17:35:00,21.9,12.6,30.25,North,10,7.0,10.0,67,0.00,,,0.00,Wunderground v.1.15,2013-02-20 22:35:00,
2013-02-20 17:40:00,21.9,12.6,30.25,NNW,336,8.0,8.0,67,0.00,,,0.00,Wunderground v.1.15,2013-02-20 22:40:00,
2013-02-20 17:45:00,21.9,12.6,30.25,North,357,8.0,8.0,67,0.00,,,0.00,Wunderground v.1.15,2013-02-20 22:45:00,
2013-02-20 17:55:00,21.8,12.5,30.25,North,0,8.0,10.0,67,0.00,,,0.00,Wunderground v.1.15,2013-02-20 22:55:00,
2013-02-20 18:00:00,21.8,12.9,30.25,NW,320,8.0,8.0,68,0.00,,,0.00,Wunderground v.1.15,2013-02-20 23:00:00,
2013-02-20 18:06:00,21.8,12.9,30.25,NW,320,7.0,9.0,68,0.00,,,0.00,Wunderground v.1.15,2013-02-20 23:06:00,
2013-02-20 18:15:00,21.6,12.7,30.25,North,350,6.0,8.0,68,0.00,,,0.00,Wunderground v.1.15,2013-02-20 23:15:00,
2013-02-20 18:20:00,21.6,12.7,30.25,NNW,344,6.0,6.0,68,0.00,,,0.00,Wunderground v.1.15,2013-02-20 23:20:00,
2013-02-20 18:25:00,21.6,12.7,30.25,North,359,6.0,6.0,68,0.00,,,0.00,Wunderground v.1.15,2013-02-20 23:25:00,
2013-02-20 18:35:00,21.6,13.0,30.26,NW,320,6.0,8.0,69,0.00,,,0.00,Wunderground v.1.15,2013-02-20 23:35:00,
2013-02-20 18:40:00,21.4,12.8,30.26,NNW,335,6.0,6.0,69,0.00,,,0.00,Wunderground v.1.15,2013-02-20 23:40:00,
2013-02-20 18:45:00,21.4,13.1,30.26,NW,326,6.0,6.0,70,0.00,,,0.00,Wunderground v.1.15,2013-02-20 23:45:00,
2013-02-20 18:55:00,21.3,13.4,30.26,NW,304,6.0,8.0,71,0.00,,,0.00,Wunderground v.1.15,2013-02-20 23:55:00,
2013-02-20 19:00:00,21.3,13.4,30.27,North,4,5.0,5.0,71,0.00,,,0.00,Wunderground v.1.15,2013-02-21 00:00:00,
2013-02-20 19:06:00,21.3,13.7,30.27,NW,320,5.0,5.0,72,0.00,,,0.00,Wunderground v.1.15,2013-02-21 00:06:00,
2013-02-20 19:15:00,21.1,13.5,30.27,NNW,328,5.0,7.0,72,0.00,,,0.00,Wunderground v.1.15,2013-02-21 00:15:00,
2013-02-20 19:20:00,21.1,13.5,30.27,NW,326,6.0,10.0,72,0.00,,,0.00,Wunderground v.1.15,2013-02-21 00:20:00,
2013-02-20 19:25:00,21.1,13.5,30.27,North,353,6.0,10.0,72,0.00,,,0.00,Wunderground v.1.15,2013-02-21 00:25:00,
2013-02-20 19:35:00,21.0,13.4,30.26,NNW,347,6.0,11.0,72,0.00,,,0.00,Wunderground v.1.15,2013-02-21 00:35:00,
2013-02-20 19:40:00,21.0,13.4,30.26,NW,316,6.0,6.0,72,0.00,,,0.00,Wunderground v.1.15,2013-02-21 00:40:00,
2013-02-20 19:50:00,21.0,13.4,30.27,NNW,346,6.0,6.0,72,0.00,,,0.00,Wunderground v.1.15,2013-02-21 00:50:00,
2013-02-20 19:55:00,21.0,13.4,30.27,NNW,343,6.0,6.0,72,0.00,,,0.00,Wunderground v.1.15,2013-02-21 00:55:00,
2013-02-20 20:00:00,21.0,13.4,30.27,NNW,335,6.0,6.0,72,0.00,,,0.00,Wunderground v.1.15,2013-02-21 01:00:00,
2013-02-20 20:06:00,21.0,13.4,30.27,NNW,336,5.0,10.0,72,0.00,,,0.00,Wunderground v.1.15,2013-02-21 01:06:00,
2013-02-20 20:15:00,21.0,13.4,30.26,North,0,6.0,6.0,72,0.00,,,0.00,Wunderground v.1.15,2013-02-21 01:15:00,
2013-02-20 20:25:00,21.0,13.4,30.26,North,353,5.0,8.0,72,0.00,,,0.00,Wunderground v.1.15,2013-02-21 01:25:00,
2013-02-20 20:30:00,21.0,13.4,30.26,NNW,346,4.0,7.0,72,0.00,,,0.00,Wunderground v.1.15,2013-02-21 01:30:00,
2013-02-20 20:35:00,21.0,13.4,30.26,North,354,5.0,7.0,72,0.00,,,0.00,Wunderground v.1.15,2013-02-21 01:35:00,
2013-02-20 20:40:00,21.0,13.4,30.26,North,0,5.0,5.0,72,0.00,,,0.00,Wunderground v.1.15,2013-02-21 01:40:00,
2013-02-20 20:50:00,21.0,13.4,30.26,North,0,4.0,4.0,72,0.00,,,0.00,Wunderground v.1.15,2013-02-21 01:50:00,
2013-02-20 20:55:00,21.0,13.4,30.26,NW,322,4.0,6.0,72,0.00,,,0.00,Wunderground v.1.15,2013-02-21 01:55:00,
2013-02-20 21:05:00,21.0,13.7,30.27,NNW,330,5.0,7.0,73,0.00,,,0.00,Wunderground v.1.15,2013-02-21 02:05:00,
2013-02-20 21:15:00,21.0,13.7,30.27,NW,315,3.0,4.0,73,0.00,,,0.00,Wunderground v.1.15,2013-02-21 02:15:00,
2013-02-20 21:25:00,21.0,14.0,30.27,North,350,4.0,6.0,74,0.00,,,0.00,Wunderground v.1.15,2013-02-21 02:25:00,
2013-02-20 21:30:00,21.1,14.1,30.27,NNW,332,5.0,6.0,74,0.00,,,0.00,Wunderground v.1.15,2013-02-21 02:30:00,
2013-02-20 21:35:00,21.1,14.1,30.27,NNW,342,5.0,6.0,74,0.00,,,0.00,Wunderground v.1.15,2013-02-21 02:35:00,
2013-02-20 21:40:00,21.1,14.1,30.27,NW,326,5.0,5.0,74,0.00,,,0.00,Wunderground v.1.15,2013-02-21 02:40:00,
2013-02-20 21:50:00,21.1,14.1,30.27,NNW,340,3.0,3.0,74,0.00,,,0.00,Wunderground v.1.15,2013-02-21 02:50:00,
2013-02-20 21:55:00,21.1,14.1,30.27,NNW,335,4.0,9.0,74,0.00,,,0.00,Wunderground v.1.15,2013-02-21 02:55:00,
2013-02-20 22:00:00,21.1,14.1,30.27,North,0,5.0,7.0,74,0.00,,,0.00,Wunderground v.1.15,2013-02-21 03:00:00,
2013-02-20 22:06:00,21.3,14.0,30.27,NNE,13,6.0,7.0,73,0.00,,,0.00,Wunderground v.1.15,2013-02-21 03:06:00,
2013-02-20 22:15:00,21.4,13.5,30.27,North,349,5.0,7.0,71,0.00,,,0.00,Wunderground v.1.15,2013-02-21 03:15:00,
2013-02-20 22:25:00,21.6,13.3,30.27,North,0,6.0,8.0,70,0.00,,,0.00,Wunderground v.1.15,2013-02-21 03:25:00,
2013-02-20 22:30:00,21.6,13.0,30.26,NW,326,7.0,7.0,69,0.00,,,0.00,Wunderground v.1.15,2013-02-21 03:30:00,
2013-02-20 22:35:00,21.6,12.7,30.26,NNE,32,6.0,7.0,68,0.00,,,0.00,Wunderground v.1.15,2013-02-21 03:35:00,
2013-02-20 22:45:00,21.6,12.7,30.26,North,11,4.0,7.0,68,0.00,,,0.00,Wunderground v.1.15,2013-02-21 03:45:00,
2013-02-20 22:50:00,21.6,12.3,30.26,NW,320,5.0,8.0,67,0.00,,,0.00,Wunderground v.1.15,2013-02-21 03:50:00,
2013-02-20 22:55:00,21.6,12.3,30.26,North,350,7.0,8.0,67,0.00,,,0.00,Wunderground v.1.15,2013-02-21 03:55:00,
2013-02-20 23:05:00,21.4,12.5,30.26,North,359,4.0,6.0,68,0.00,,,0.00,Wunderground v.1.15,2013-02-21 04:05:00,
2013-02-20 23:15:00,21.4,12.5,30.27,NNE,31,2.0,3.0,68,0.00,,,0.00,Wunderground v.1.15,2013-02-21 04:15:00,
2013-02-20 23:25:00,21.3,12.4,30.27,North,4,4.0,5.0,68,0.00,,,0.00,Wunderground v.1.15,2013-02-21 04:25:00,
2013-02-20 23:30:00,21.3,12.7,30.27,North,0,3.0,4.0,69,0.00,,,0.00,Wunderground v.1.15,2013-02-21 04:30:00,
2013-02-20 23:35:00,21.3,12.7,30.27,North,3,4.0,7.0,69,0.00,,,0.00,Wunderground v.1.15,2013-02-21 04:35:00,
2013-02-20 23:40:00,21.3,12.7,30.27,North,359,5.0,5.0,69,0.00,,,0.00,Wunderground v.1.15,2013-02-21 04:40:00,
2013-02-20 23:50:00,21.3,12.4,30.27,North,0,7.0,7.0,68,0.00,,,0.00,Wunderground v.1.15,2013-02-21 04:50:00,
2013-02-20 23:55:00,21.3,12.4,30.27,NNE,21,7.0,7.0,68,0.00,,,0.00,Wunderground v.1.15,2013-02-21 04:55:00,